Location: Degerfors
(59.2294°N, 14.4406°E)
Time: 02:28:03
(UTC+01:00)

ISS - Visible Passes

Search period start: 02 December 2021 00:00
Search period end: 12 December 2021 00:00
Orbit: 417 x 423 km, 51.6° (Epoch: 01 December)

Date Brightness Start Highest point End Pass type
(mag) Time Alt. Az. Time Alt. Az. Time Alt. Az.
02 Dec -1.6 16:21:59 10° SW 16:24:44 23° S 16:27:29 10° SE visible
02 Dec -1.3 17:58:30 10° WSW 18:00:51 18° SSW 18:02:15 14° SSE visible
03 Dec -1.4 17:11:17 10° WSW 17:13:50 20° SSW 17:16:24 10° SE visible
04 Dec -1.4 16:24:07 10° WSW 16:26:49 22° S 16:29:30 10° SE visible
04 Dec -0.8 18:01:23 10° SW 18:02:48 12° SSW 18:04:13 10° S visible
05 Dec -0.9 17:13:49 10° WSW 17:15:50 15° SSW 17:17:50 10° SSE visible
06 Dec -0.9 16:26:28 10° WSW 16:28:48 17° SSW 16:31:09 10° SSE visible
08 Dec -0.5 16:29:19 10° SW 16:30:42 12° SSW 16:32:03 10° S visible
